Date_and_time,latitude,longitude,wind_speed,RelWindDirFrom,WindDirFrom,air_pressure,air_temperature,relative_humidity,Temp,platform_speed_wrt_ground,air_pressure_at_mean_sea_level,platform_orientation
2019-11-08 00:00,50.6304483333333,-96.9807733333333,4.3,6.1,208,1002.50,-8.2,56,1.07,0.0,1031.58,347.4
2019-11-08 00:10,50.6304483333333,-96.9807733333333,7.2,9.6,194,1002.46,-8.3,58,1.08,0.0,1031.55,347.4
2019-11-08 00:20,50.6304416666667,-96.9807783333333,7.4,9.6,202,1002.60,-8.6,62,1.08,0.0,1031.71,347.4
2019-11-08 00:30,50.630445,-96.9807833333333,8.4,10.9,198,1002.58,-8.8,63,1.08,0.0,1031.69,347.4
2019-11-08 00:40,50.630445,-96.9807816666667,7.1,9.1,197,1002.53,-8.9,65,1.09,0.0,1031.66,347.4
2019-11-08 00:50,50.63045,-96.9807683333333,7.6,9.4,198,1002.47,-9.1,66,1.09,0.0,1031.64,347.4
2019-11-08 01:00,50.63045,-96.9807733333333,7.7,9.8,202,1002.47,-9.4,66,1.10,0.0,1031.66,360.0
2019-11-08 01:10,50.6304516666667,-96.9807733333333,7.7,9.4,204,1002.47,-9.6,67,1.10,0.0,1031.67,360.0
2019-11-08 01:20,50.6304466666667,-96.9807716666667,7.8,10.0,202,1002.42,-9.6,67,1.10,0.0,1031.64,360.0
2019-11-08 01:30,50.6304433333333,-96.9807716666667,8.0,11.0,201,1002.31,-9.7,67,1.10,0.0,1031.53,360.0
2019-11-08 01:40,50.6304433333333,-96.9807716666667,8.3,10.7,200,1002.22,-9.8,67,1.09,0.0,1031.45,360.0
2019-11-08 01:50,50.6304216666667,-96.9807566666667,8.8,11.4,198,1002.06,-9.8,68,1.07,0.0,1031.30,360.0
2019-11-08 02:00,50.63044,-96.98078,9.0,11.2,197,1002.00,-9.9,68,1.04,0.0,1031.25,248.5
2019-11-08 02:10,50.6304416666667,-96.98078,8.5,11.1,197,1001.89,-9.9,68,1.01,0.0,1031.15,248.5
2019-11-08 02:20,50.6304366666667,-96.98078,9.1,11.9,197,1001.71,-9.9,67,1.00,0.0,1030.98,248.5
2019-11-08 02:30,50.630435,-96.9807783333333,8.8,11.4,198,1001.63,-9.9,67,1.00,0.0,1030.91,248.5
2019-11-08 02:40,50.63043,-96.980765,8.3,10.3,197,1001.61,-9.8,67,1.01,0.0,1030.89,248.5
2019-11-08 02:50,50.6304366666667,-96.9807666666667,8.4,11.0,202,1001.73,-9.7,66,1.02,0.0,1031.02,248.5
2019-11-08 03:00,50.6304383333333,-96.9807683333333,8.1,10.5,201,1001.67,-9.7,66,1.05,0.0,1030.97,131.7
2019-11-08 03:10,50.6304383333333,-96.98077,8.1,9.9,197,1001.48,-9.6,66,1.05,0.0,1030.78,131.7
2019-11-08 03:20,50.6304416666667,-96.9807733333333,7.8,9.9,196,1001.39,-9.6,67,1.05,0.0,1030.69,131.7
2019-11-08 03:30,50.6304416666667,-96.980775,7.4,9.8,192,1001.21,-9.5,68,1.04,0.0,1030.49,131.7
2019-11-08 03:40,50.6304433333333,-96.9807716666667,8.0,10.1,192,1001.12,-9.3,67,1.02,0.0,1030.40,131.7
2019-11-08 03:50,50.6304433333333,-96.9807683333333,8.0,10.7,192,1001.18,-9.3,66,1.00,0.0,1030.46,131.7
2019-11-08 04:00,50.6304433333333,-96.9807683333333,8.4,11.0,190,1001.19,-9.2,66,0.97,0.0,1030.46,360.0
2019-11-08 04:10,50.630445,-96.9807816666667,8.6,10.3,190,1001.06,-9.1,66,0.95,0.0,1030.33,360.0
2019-11-08 04:20,50.6304433333333,-96.9807666666667,8.8,11.3,189,1000.89,-9.0,65,0.93,0.0,1030.14,360.0
2019-11-08 04:30,50.630445,-96.9807716666667,9.2,11.9,190,1000.85,-8.8,64,0.93,0.0,1030.09,360.0
2019-11-08 04:40,50.630445,-96.9807716666667,9.1,10.9,189,1000.67,-8.9,63,0.94,0.0,1029.90,360.0
2019-11-08 04:50,50.6304333333333,-96.9807483333333,9.7,11.6,190,1000.45,-8.8,63,0.95,0.0,1029.68,360.0
2019-11-08 05:00,50.6304433333333,-96.9807783333333,10.0,12.4,190,1000.31,-8.8,63,0.96,0.0,1029.52,90.0
2019-11-08 05:10,50.6304416666667,-96.9807783333333,10.2,12.6,192,1000.14,-8.9,63,0.97,0.0,1029.36,90.0
2019-11-08 05:20,50.6304416666667,-96.9807783333333,10.7,13.0,189,999.93,-8.8,63,0.97,0.0,1029.13,90.0
2019-11-08 05:30,50.63044,-96.98078,11.0,13.1,187,999.76,-8.7,62,0.97,0.0,1028.94,90.0
2019-11-08 05:40,50.63044,-96.9807783333333,11.0,13.6,188,999.49,-8.7,62,0.97,0.0,1028.66,90.0
2019-11-08 05:50,50.63044,-96.98076,11.5,14.2,184,999.25,-8.7,61,0.97,0.0,1028.40,90.0
2019-11-08 06:00,50.630445,-96.9807666666667,11.3,14.1,185,999.02,-8.6,61,0.97,0.0,1028.15,90.0
2019-11-08 06:10,50.6304466666667,-96.98076,11.1,14.3,188,998.84,-8.5,61,0.97,0.0,1027.96,90.0
2019-11-08 06:20,50.6304466666667,-96.9807533333333,11.0,13.9,194,998.80,-8.5,60,0.97,0.0,1027.91,90.0
2019-11-08 06:30,50.6304666666667,-96.980785,10.8,14.6,192,998.78,-8.5,60,0.97,0.0,1027.89,90.0
2019-11-08 06:40,50.6304466666667,-96.9807633333333,10.4,13.0,194,998.73,-8.5,61,0.97,0.0,1027.84,90.0
2019-11-08 06:50,50.6304466666667,-96.980765,10.9,13.3,193,998.57,-8.5,62,0.97,0.0,1027.67,90.0
2019-11-08 07:00,50.63043,-96.9807533333333,11.7,15.2,193,998.38,-8.5,62,0.97,0.0,1027.47,147.5
2019-11-08 07:10,50.6304433333333,-96.9807683333333,11.4,14.7,191,998.26,-8.5,62,0.96,0.0,1027.36,147.5
2019-11-08 07:20,50.630445,-96.9807733333333,11.0,15.3,191,998.10,-8.5,63,0.95,0.0,1027.18,147.5
2019-11-08 07:30,50.6304433333333,-96.98077,11.0,14.8,191,997.90,-8.5,63,0.94,0.0,1026.97,147.5
2019-11-08 07:40,50.630445,-96.9807666666667,11.2,13.7,190,997.74,-8.3,62,0.93,0.0,1026.80,147.5
2019-11-08 07:50,50.6304466666667,-96.9807683333333,11.2,14.9,191,997.51,-8.2,62,0.93,0.0,1026.54,147.5
2019-11-08 08:00,50.6304466666667,-96.980765,12.6,15.8,187,997.17,-8.2,61,0.93,0.0,1026.20,66.4
2019-11-08 08:10,50.6304466666667,-96.980765,11.8,14.7,186,996.95,-8.2,62,0.93,0.0,1025.96,66.4
2019-11-08 08:20,50.6304466666667,-96.9807666666667,11.4,14.1,182,996.81,-8.1,63,0.93,0.0,1025.82,66.4
2019-11-08 08:30,50.63044,-96.980775,11.7,14.7,182,996.71,-8.1,63,0.93,0.0,1025.72,66.4
2019-11-08 08:40,50.6304383333333,-96.9807733333333,11.7,13.8,181,996.51,-8.1,63,0.92,0.0,1025.51,66.4
2019-11-08 08:50,50.630445,-96.98077,12.1,15.3,181,996.35,-8.1,63,0.93,0.0,1025.35,66.4
2019-11-08 09:00,50.6304416666667,-96.9807483333333,11.4,15.2,183,996.45,-8.0,63,0.93,0.0,1025.44,90.0
2019-11-08 09:10,50.6304466666667,-96.98076,12.1,16.1,184,996.19,-8.0,64,0.94,0.0,1025.17,90.0
2019-11-08 09:20,50.6304466666667,-96.9807666666667,11.5,13.6,182,996.21,-8.0,64,0.94,0.0,1025.19,90.0
2019-11-08 09:30,50.6304483333333,-96.9807666666667,12.1,15.3,185,996.03,-8.0,65,0.94,0.0,1025.00,90.0
2019-11-08 09:40,50.63045,-96.9807666666667,12.2,15.2,186,995.73,-7.9,66,0.94,0.0,1024.68,90.0
2019-11-08 09:50,50.63045,-96.9807666666667,11.2,13.2,185,995.51,-7.9,66,0.94,0.0,1024.46,90.0
2019-11-08 10:00,50.63045,-96.9807666666667,11.1,12.9,182,995.25,-7.9,66,0.95,0.0,1024.18,360.0
2019-11-08 10:10,50.6304483333333,-96.9807683333333,10.0,12.4,183,995.20,-7.8,66,0.96,0.0,1024.12,360.0
2019-11-08 10:20,50.6304483333333,-96.98077,10.1,12.5,179,995.05,-7.7,66,0.97,0.0,1023.96,360.0
2019-11-08 10:30,50.63044,-96.98075,11.0,13.3,179,994.94,-7.6,66,0.98,0.0,1023.85,360.0
2019-11-08 10:40,50.6304433333333,-96.9807733333333,11.4,14.4,174,994.70,-7.5,67,1.00,0.0,1023.59,360.0
2019-11-08 10:50,50.6304416666667,-96.9807733333333,11.7,14.5,176,994.51,-7.4,68,1.01,0.0,1023.39,360.0
2019-11-08 11:00,50.6304416666667,-96.9807733333333,13.0,15.3,175,994.35,-7.4,67,1.01,0.0,1023.22,192.6
2019-11-08 11:10,50.63044,-96.9807366666667,13.3,15.7,177,994.22,-7.3,68,1.01,0.0,1023.08,192.6
2019-11-08 11:20,50.6304433333333,-96.9807783333333,13.4,17.4,177,994.16,-7.3,68,1.00,0.0,1023.02,192.6
2019-11-08 11:30,50.6304466666667,-96.9807783333333,13.7,16.1,177,994.08,-7.3,68,1.00,0.0,1022.94,192.6
2019-11-08 11:40,50.6304466666667,-96.9807783333333,12.9,15.8,177,993.92,-7.3,68,1.00,0.0,1022.77,192.6
2019-11-08 11:50,50.6304483333333,-96.980775,12.9,15.6,177,993.66,-7.3,69,1.01,0.0,1022.50,192.6
2019-11-08 12:00,50.6304483333333,-96.9807733333333,13.9,17.7,178,993.43,-7.2,70,1.02,0.0,1022.25,293.6
2019-11-08 12:10,50.6304666666667,-96.9807833333333,13.4,16.4,178,993.27,-7.2,70,1.02,0.0,1022.08,293.6
2019-11-08 12:20,50.63044,-96.9807733333333,12.5,14.9,178,992.96,-7.1,71,1.02,0.0,1021.76,293.6
2019-11-08 12:30,50.6304466666667,-96.98077,13.5,17.6,176,992.63,-7.1,71,1.02,0.0,1021.40,293.6
2019-11-08 12:40,50.630455,-96.9807916666667,12.3,15.4,178,992.59,-7.0,72,1.01,0.0,1021.35,293.6
2019-11-08 12:50,50.6304516666667,-96.98078,14.0,16.9,179,992.38,-6.9,71,1.01,0.0,1021.13,293.6
2019-11-08 13:00,50.63045,-96.9807733333333,13.8,16.4,178,992.21,-6.9,72,1.01,0.0,1020.96,270.0
2019-11-08 13:10,50.63045,-96.9807716666667,13.7,17.2,181,992.08,-6.8,72,1.02,0.0,1020.81,270.0
2019-11-08 13:20,50.6304516666667,-96.9807716666667,14.0,16.9,177,991.94,-6.8,72,1.02,0.0,1020.66,270.0
2019-11-08 13:30,50.63045,-96.9807716666667,12.1,16.7,175,991.83,-6.7,73,1.04,0.0,1020.55,270.0
2019-11-08 13:40,50.6304316666667,-96.9807666666667,12.6,16.3,175,991.62,-6.6,74,1.04,0.0,1020.33,270.0
2019-11-08 13:50,50.630435,-96.9807733333333,13.1,16.3,174,991.41,-6.6,74,1.04,0.0,1020.11,270.0
2019-11-08 14:00,50.6304283333333,-96.980775,13.9,17.1,173,991.21,-6.5,74,1.04,0.0,1019.89,161.1
2019-11-08 14:10,50.6304383333333,-96.9807766666667,12.5,16.8,175,991.16,-6.5,74,1.03,0.0,1019.84,161.1
2019-11-08 14:20,50.63044,-96.9807683333333,12.5,16.3,178,991.17,-6.4,74,1.03,0.0,1019.84,161.1
2019-11-08 14:30,50.63044,-96.9807633333333,13.7,16.4,177,990.84,-6.4,74,1.03,0.0,1019.50,161.1
2019-11-08 14:40,50.63045,-96.980765,14.4,17.2,175,990.54,-6.4,74,1.03,0.0,1019.19,161.1
2019-11-08 14:50,50.630445,-96.98077,13.0,16.1,177,990.40,-6.3,74,1.03,0.0,1019.03,161.1
2019-11-08 15:00,50.630445,-96.9807666666667,13.5,16.6,177,990.34,-6.3,74,1.03,0.0,1018.97,167.4
2019-11-08 15:10,50.6304466666667,-96.9807683333333,11.7,15.9,179,990.45,-6.2,74,1.03,0.0,1019.07,167.4
2019-11-08 15:20,50.63043,-96.9807633333333,11.0,13.5,180,990.24,-6.1,74,1.02,0.0,1018.85,167.4
2019-11-08 15:30,50.63044,-96.9807683333333,11.5,15.3,174,989.89,-6.1,74,1.02,0.0,1018.48,167.4
2019-11-08 15:40,50.63044,-96.9807733333333,12.5,15.0,177,989.59,-5.9,75,1.02,0.0,1018.16,167.4
2019-11-08 15:50,50.630455,-96.980765,12.6,16.0,180,989.63,-5.8,75,1.02,0.0,1018.20,167.4
2019-11-08 16:00,50.63045,-96.9807683333333,11.0,14.9,182,989.52,-5.7,75,1.02,0.0,1018.07,90.0
2019-11-08 16:10,50.6304466666667,-96.9807666666667,12.5,14.9,176,989.43,-5.6,75,1.02,0.0,1017.97,90.0
2019-11-08 16:20,50.630445,-96.9807633333333,11.8,14.5,174,989.23,-5.5,75,1.02,0.0,1017.76,90.0
2019-11-08 16:30,50.6304433333333,-96.9807633333333,13.0,15.1,174,989.01,-5.3,76,1.01,0.0,1017.53,90.0
2019-11-08 16:40,50.6304416666667,-96.9807633333333,12.9,15.8,172,988.85,-5.2,76,1.01,0.0,1017.35,90.0
2019-11-08 16:50,50.6304416666667,-96.9807633333333,12.9,16.7,166,988.54,-4.9,76,1.01,0.0,1017.02,90.0
2019-11-08 17:00,50.6304433333333,-96.9807633333333,14.7,16.8,171,988.32,-4.7,75,1.00,0.0,1016.77,23.5
2019-11-08 17:10,50.6304566666667,-96.980795,13.4,16.3,172,988.30,-4.6,76,1.00,0.0,1016.74,23.5
2019-11-08 17:20,50.6304533333333,-96.9807666666667,12.9,16.3,169,988.35,-4.6,76,1.00,0.0,1016.78,23.5
2019-11-08 17:30,50.6304516666667,-96.9807733333333,12.6,16.3,168,988.14,-4.5,76,1.00,0.0,1016.56,23.5
2019-11-08 17:40,50.6304483333333,-96.9807666666667,11.2,14.8,165,987.94,-4.4,77,1.01,0.0,1016.34,23.5
2019-11-08 17:50,50.63045,-96.9807683333333,11.3,14.1,163,987.65,-4.2,76,1.01,0.0,1016.03,23.5
2019-11-08 18:00,50.63045,-96.9807666666667,11.7,15.3,160,987.43,-4.1,76,1.01,0.0,1015.79,360.0
2019-11-08 18:10,50.63045,-96.9807666666667,12.4,15.6,154,987.12,-4.0,77,1.01,0.0,1015.46,360.0
2019-11-08 18:20,50.63045,-96.980765,13.3,16.1,154,986.80,-3.8,76,1.01,0.0,1015.11,360.0
2019-11-08 18:30,50.63045,-96.9807666666667,14.2,16.5,152,986.55,-3.7,76,1.01,0.0,1014.84,360.0
2019-11-08 18:40,50.6304383333333,-96.9807166666667,14.1,17.0,155,986.46,-3.6,76,1.00,0.0,1014.73,360.0
2019-11-08 18:50,50.630445,-96.980755,13.0,15.8,160,986.35,-3.4,75,1.00,0.0,1014.60,360.0
2019-11-08 19:00,50.6304466666667,-96.9807633333333,12.6,15.5,157,986.28,-3.3,74,1.00,0.0,1014.51,360.0
2019-11-08 19:10,50.630445,-96.9807683333333,11.8,15.5,161,986.21,-3.2,73,1.00,0.0,1014.43,360.0
2019-11-08 19:20,50.6304566666667,-96.98082,12.2,15.5,161,986.11,-3.1,73,1.01,0.0,1014.32,360.0
2019-11-08 19:30,50.630445,-96.9807683333333,11.5,14.6,160,986.01,-3.1,72,1.01,0.0,1014.21,360.0
2019-11-08 19:40,50.630445,-96.9807683333333,11.7,15.2,164,985.74,-3.0,73,1.01,0.0,1013.92,360.0
2019-11-08 19:50,50.6304483333333,-96.9807683333333,12.3,16.5,160,985.58,-2.9,73,1.02,0.0,1013.74,360.0
2019-11-08 20:00,50.6304466666667,-96.98077,11.8,14.4,167,985.46,-2.9,73,1.02,0.0,1013.61,360.0
2019-11-08 20:10,50.6304466666667,-96.9807683333333,12.5,15.2,166,985.38,-2.9,73,1.03,0.0,1013.52,360.0
2019-11-08 20:20,50.6304466666667,-96.9807683333333,12.6,14.6,170,985.25,-2.8,72,1.04,0.0,1013.38,360.0
2019-11-08 20:30,50.6304466666667,-96.9807683333333,11.6,14.8,171,985.13,-2.7,73,1.04,0.0,1013.24,360.0
2019-11-08 20:40,50.6304483333333,-96.980775,12.5,15.2,172,984.88,-2.7,72,1.05,0.0,1012.97,360.0
2019-11-08 20:50,50.63041,-96.980775,12.4,15.0,167,984.75,-2.7,73,1.05,0.0,1012.84,360.0
2019-11-08 21:00,50.6304316666667,-96.980775,11.7,14.7,169,984.75,-2.6,73,1.06,0.0,1012.83,360.0
2019-11-08 21:10,50.6304333333333,-96.98077,10.2,12.7,178,984.67,-2.5,74,1.07,0.0,1012.74,360.0
2019-11-08 21:20,50.630445,-96.9807166666667,10.0,12.1,177,984.60,-2.5,74,1.07,0.0,1012.65,360.0
2019-11-08 21:30,50.6304383333333,-96.9807616666667,9.9,13.5,175,984.54,-2.4,75,1.08,0.0,1012.59,360.0
2019-11-08 21:40,50.63044,-96.980765,10.8,13.1,174,984.51,-2.6,77,1.09,0.0,1012.56,360.0
2019-11-08 21:50,50.63044,-96.9807666666667,8.9,11.2,175,984.54,-2.7,81,1.09,0.0,1012.60,360.0
2019-11-08 22:00,50.6304416666667,-96.9807683333333,9.9,12.5,172,984.43,-2.8,84,1.09,0.0,1012.49,360.0
2019-11-08 22:10,50.6304433333333,-96.9807683333333,9.0,11.0,173,984.37,-3.0,88,1.08,0.0,1012.43,360.0
2019-11-08 22:20,50.6304416666667,-96.9807683333333,7.9,9.7,172,984.26,-3.1,91,1.08,0.0,1012.32,360.0
2019-11-08 22:30,50.63044,-96.98077,6.7,8.4,176,984.20,-3.1,94,1.07,0.0,1012.26,360.0
2019-11-08 22:40,50.63044,-96.980775,6.6,8.8,178,984.29,-3.1,96,1.07,0.0,1012.36,360.0
2019-11-08 22:50,50.6304483333333,-96.9807783333333,6.0,7.8,181,984.37,-3.1,96,1.05,0.0,1012.43,360.0
2019-11-08 23:00,50.630445,-96.9807733333333,5.3,7.0,181,984.32,-3.2,98,1.04,0.0,1012.38,192.6
2019-11-08 23:10,50.6304466666667,-96.9807716666667,5.6,6.7,181,984.30,-3.2,99,1.02,0.0,1012.35,192.6
2019-11-08 23:20,50.6304466666667,-96.9807716666667,6.1,7.2,175,984.21,-3.2,99,1.01,0.0,1012.26,192.6
2019-11-08 23:30,50.6304466666667,-96.9807733333333,5.7,7.3,175,984.22,-3.2,99,1.01,0.0,1012.28,192.6
2019-11-08 23:40,50.6304483333333,-96.9807733333333,6.9,10.7,168,984.20,-3.2,99,1.01,0.0,1012.27,192.6
